TimeCDT,TemperatureF,Dew PointF,Humidity,Sea Level PressureIn,VisibilityMPH,Wind Direction,Wind SpeedMPH,Gust SpeedMPH,PrecipitationIn,Events,Conditions,WindDirDegrees,DateUTC
12:53 AM,50.0,43.0,77,30.02,10.0,Calm,Calm,-,N/A,,Clear,0,2013-05-06 05:53:00
1:53 AM,48.9,44.1,83,30.01,10.0,WNW,3.5,-,N/A,,Clear,290,2013-05-06 06:53:00
2:53 AM,48.9,44.1,83,30.00,10.0,West,3.5,-,N/A,,Clear,270,2013-05-06 07:53:00
3:53 AM,46.9,43.0,86,29.99,10.0,Calm,Calm,-,N/A,,Clear,0,2013-05-06 08:53:00
4:53 AM,48.0,43.0,83,30.00,10.0,Calm,Calm,-,N/A,,Clear,0,2013-05-06 09:53:00
5:53 AM,46.9,44.1,90,30.00,10.0,Calm,Calm,-,N/A,,Clear,0,2013-05-06 10:53:00
6:53 AM,50.0,43.0,77,30.02,10.0,West,4.6,-,N/A,,Mostly Cloudy,270,2013-05-06 11:53:00
7:53 AM,55.9,45.0,67,30.03,10.0,West,5.8,-,N/A,,Partly Cloudy,280,2013-05-06 12:53:00
8:53 AM,62.1,45.0,53,30.03,10.0,West,8.1,-,N/A,,Clear,270,2013-05-06 13:53:00
9:53 AM,64.9,45.0,48,30.03,10.0,WNW,12.7,18.4,N/A,,Clear,290,2013-05-06 14:53:00
10:53 AM,68.0,46.0,45,30.02,10.0,WNW,11.5,-,N/A,,Clear,290,2013-05-06 15:53:00
11:53 AM,70.0,46.9,44,30.00,10.0,West,9.2,16.1,N/A,,Clear,270,2013-05-06 16:53:00
12:53 PM,72.0,46.0,40,29.98,10.0,West,11.5,17.3,N/A,,Clear,260,2013-05-06 17:53:00
1:53 PM,73.0,48.9,42,29.96,10.0,Calm,Calm,-,N/A,,Partly Cloudy,0,2013-05-06 18:53:00
2:53 PM,70.0,48.0,46,29.94,9.0,SSW,12.7,26.5,N/A,,Overcast,210,2013-05-06 19:53:00
3:53 PM,73.0,48.9,42,29.92,10.0,West,10.4,21.9,N/A,,Scattered Clouds,260,2013-05-06 20:53:00
4:53 PM,72.0,48.9,44,29.92,10.0,WSW,13.8,19.6,N/A,,Mostly Cloudy,240,2013-05-06 21:53:00
5:53 PM,71.1,48.9,45,29.93,10.0,West,11.5,18.4,N/A,,Overcast,270,2013-05-06 22:53:00
6:53 PM,70.0,50.0,49,29.93,10.0,West,6.9,-,N/A,,Overcast,260,2013-05-06 23:53:00
7:53 PM,68.0,52.0,56,29.94,10.0,Calm,Calm,-,N/A,,Partly Cloudy,0,2013-05-07 00:53:00
8:53 PM,64.9,52.0,63,29.96,10.0,SW,3.5,-,N/A,,Mostly Cloudy,230,2013-05-07 01:53:00
9:53 PM,63.0,53.1,70,29.99,10.0,NNW,3.5,-,N/A,,Mostly Cloudy,340,2013-05-07 02:53:00
10:53 PM,64.0,54.0,70,29.99,10.0,Calm,Calm,-,N/A,,Overcast,0,2013-05-07 03:53:00
11:53 PM,62.1,54.0,75,29.99,10.0,West,3.5,-,N/A,,Mostly Cloudy,280,2013-05-07 04:53:00